HULIANWANG DIGUI-94

导读

HULIANWANG DIGUI-94是中国于2025年10月16日发射的卫星,属于低轨互联网星座组网卫星,承担着推动全球高速互联网络布局的重要使命。该卫星搭载先进通信载荷,将进一步完善中国低轨卫星通信网络建设,为全球用户提供稳定、高效的宽带互联网服务,助力天地一体化信息网络构建,推动卫星互联网产业发展。

基本信息
目录编号:
66002
目录名称:
HULIANWANG DIGUI-94
国际标识:
2025-231H
轨道中心:
EARTH
卫星名称:
HULIANWANG DIGUI-94
卫星全名:
HULIANWANG DIGUI-94
卫星状态:
在轨 (已飞行248 天)
发射日期:
2025-10-16 UTC
国别 :
中国 (CN)
星等 :
--
轨道信息
数据来源 国际轨道数据 AOE轨道数据
星历时间 2026-06-20T16:32:51+0800
1天前
查看轨道信息
2026-06-18T11:00:00+0800
3天前
查看轨道信息
半长轴 7527.449km 7527.447km
偏心率 0.0000926 0.000108
轨道倾角 50.003° 50.003°
近地点辐角 247.060° 234.044°
升交点赤经 164.230° 172.232°
平近点角 113.018° 242.113°
近地点 1148.614km 1148.497km
远地点 1150.01km 1150.123km
周期 108.326分钟 108.326分钟
每日圈数 13.293247 13.293252
详细信息
使用方式:
暂无
2D轨道图
3D轨道图
轨道高度分析图
轨道倾角分析图
轨道综合分析图
查看轨道综合分析图